Language selection

Weather shortcuts

Whitefish Bay: Past 24 Hour Conditions

 

Little Flatland Island

02:00 AM EDT 24 June 2024
Disclaimer

This table is a summary of hourly weather conditions for the past 24 hours.
Please note that these observations might not always be representative of weather conditions over their associated marine area.

Date / Time
(EDT)
Wind(knots) Conditions Visibility(km) Pressure(kPa) Air tempC) Relative humidity(%) Dew pointC)
24 June 2024
2:00 S 8 N/A N/A 101.1 13 94 12
1:00 SW 3 N/A N/A 101.1 14 91 13
0:00 SW 4 N/A N/A 101.1 15 88 13
23 June 2024
23:00 S 5 N/A N/A 101.1 15 87 13
22:00 SW 3 N/A N/A 101.0 15 83 12
21:00 WSW 5 N/A N/A 101.0 18 75 13
20:00 W 10 N/A N/A 101.0 17 73 12
19:00 W 10 N/A N/A 100.9 17 74 12
18:00 WNW 9 N/A N/A 100.9 16 84 13
17:00 WNW 12 N/A N/A 100.9 16 78 13
16:00 WNW 13 N/A N/A 100.9 16 81 13
15:00 WNW 13 N/A N/A 100.9 15 87 13
14:00 W 17 N/A N/A 100.9 16 84 13
13:00 WNW 17 gusts 22 N/A N/A 100.9 16 81 13
12:00 WSW 10 gusts 15 N/A N/A 100.8 17 79 13
11:00 WNW 12 N/A N/A 100.8 16 88 14
10:00 NW 2 N/A N/A 100.8 16 90 14
9:00 W 5 N/A N/A 100.8 16 90 14
8:00 NW 4 N/A N/A 100.7 16 90 14
7:00 WNW 4 N/A N/A 100.7 15 94 14
6:00 W 5 N/A N/A 100.7 14 94 13
5:00 NNW 4 N/A N/A 100.7 14 94 13
4:00 NNW 4 N/A N/A 100.8 14 94 13
3:00 W 2 N/A N/A 100.8 15 88 13
2:00 W 2 N/A N/A 100.9 15 90 13

Zoom-in to make a selection

Map of Great Lakes - Lake Superior marine weather areas Mid Superior - 45001 East Superior - 45004 West Superior - 45006 Slate Island - 45136 Lake Of the Woods - 45148 Kenora Airport Royal Island Armstrong Airport Caribou Island Marathon Airport Pukaskwa National Park Thunder Bay Airport Welcome Island Little Flatland Island Sault Ste. Marie Airport Wawa Airport
Legend:
buoy Buoy
land station Land Station

Great Lakes - Lake Superior Area

Another Region

Features

New Predicting and Alerting Coastal Flooding Program

Find out about coastal flooding coverage, forecasts and warnings in your region

Date modified: